User: anonymous   Login
Location: Palau
(42.3086°N, 3.1507°E)
Time: 15:47:18
(UTC+00:00)
Language:

STARLINK-1218 - Orbit

View from above orbital plane
View from above orbital plane
View from above satellite
View from above satellite

Ground track
Ground track

The orbit data is extracted from the following two-line orbital elements,

1 45209C 20012AH  21164.48747888  .01245561  00000-0  55940-1 0  1645
2 45209  53.0555 233.3853 0001462 111.7468   1.6176 15.19401783    14
Epoch (UTC): 13 June 2021 11:41:58
Eccentricity: 0.0001462
inclination: 53.0555°
perigee height: 506 km
apogee height: 508 km
right ascension of ascending node: 233.3853°
argument of perigee: 111.7468°
revolutions per day: 15.19401783
mean anomaly at epoch: 1.6176°
orbit number at epoch: 1

The dashed part of the orbit path shows where the satellite is in the earth's shadow,  

DLR